ANA75 RJTT-RJCC

Flight info

Callsign ANA75
Flight time N/A
Altitude 37000
Route BRUCE DCT AGRIS Y11 SAMBO Y119 OHMAR Y13 SIRAO Y139 NAVER
Aircraft B773/H-SDE2FGHIJ3J4J5N1P2RWX/LB1D1

Departure

Time 2026-02-17 13:44
Airport Tokyo Haneda International Airport (RJTT)

Arrival

Time N/A
Airport New Chitose Airport (RJCC)
Time Latitude Longitude Altitude Speed Heading
2026-02-17 13:17 35.55160 139.78956 32 ft 0 kts 240°
2026-02-17 13:28 35.55161 139.78959 32 ft 1 kts 240°
2026-02-17 13:28 35.55170 139.78978 31 ft 3 kts 240°
2026-02-17 13:29 35.55180 139.78999 29 ft 3 kts 239°
2026-02-17 13:29 35.55188 139.79017 29 ft 3 kts 258°
2026-02-17 13:29 35.55190 139.79031 30 ft 3 kts 292°
2026-02-17 13:29 35.55183 139.79046 28 ft 3 kts 321°
2026-02-17 13:30 35.55173 139.79055 29 ft 1 kts 330°
2026-02-17 13:30 35.55158 139.79065 30 ft 3 kts 330°
2026-02-17 13:30 35.55140 139.79078 30 ft 3 kts 330°
2026-02-17 13:31 35.55129 139.79086 31 ft 1 kts 330°
2026-02-17 13:35 35.55175 139.79055 30 ft 6 kts 337°
2026-02-17 13:35 35.55213 139.79075 31 ft 7 kts 50°
2026-02-17 13:35 35.55239 139.79126 32 ft 8 kts 59°
2026-02-17 13:35 35.55268 139.79186 32 ft 8 kts 59°
2026-02-17 13:36 35.55299 139.79251 31 ft 9 kts 59°
2026-02-17 13:36 35.55287 139.79322 32 ft 9 kts 135°
2026-02-17 13:36 35.55231 139.79364 32 ft 10 kts 150°
2026-02-17 13:36 35.55172 139.79406 32 ft 10 kts 149°
2026-02-17 13:37 35.55113 139.79448 32 ft 10 kts 150°
2026-02-17 13:37 35.55054 139.79489 31 ft 10 kts 150°
2026-02-17 13:37 35.54993 139.79532 32 ft 11 kts 150°
2026-02-17 13:37 35.54925 139.79581 30 ft 12 kts 150°
2026-02-17 13:38 35.54852 139.79633 31 ft 12 kts 150°
2026-02-17 13:38 35.54779 139.79684 30 ft 12 kts 150°
2026-02-17 13:38 35.54699 139.79741 29 ft 14 kts 150°
2026-02-17 13:39 35.54534 139.79858 28 ft 15 kts 150°
2026-02-17 13:39 35.54444 139.79922 27 ft 15 kts 150°
2026-02-17 13:39 35.54358 139.79983 26 ft 11 kts 150°
2026-02-17 13:39 35.54290 139.80032 26 ft 11 kts 150°
2026-02-17 13:40 35.54221 139.80081 31 ft 11 kts 150°
2026-02-17 13:40 35.54191 139.80119 26 ft 5 kts 106°
2026-02-17 13:40 35.54196 139.80162 27 ft 5 kts 72°
2026-02-17 13:40 35.54205 139.80186 28 ft 1 kts 60°
2026-02-17 13:41 35.54209 139.80194 28 ft 1 kts 60°
2026-02-17 13:41 35.54210 139.80194 28 ft 0 kts 60°
2026-02-17 13:42 35.54210 139.80195 28 ft 0 kts 60°
2026-02-17 13:42 35.54222 139.80223 30 ft 6 kts 61°
2026-02-17 13:42 35.54243 139.80268 32 ft 6 kts 61°
2026-02-17 13:43 35.54290 139.80286 32 ft 0 kts 330°
2026-02-17 13:44 35.54392 139.80214 33 ft 41 kts 330°
2026-02-17 13:44 35.54881 139.79866 34 ft 119 kts 330°
2026-02-17 13:44 35.55788 139.79224 96 ft 173 kts 331°
2026-02-17 13:44 35.56837 139.78491 759 ft 174 kts 332°
2026-02-17 13:45 35.57974 139.77917 1410 ft 183 kts 354°
2026-02-17 13:45 35.59193 139.78207 2011 ft 182 kts 34°
2026-02-17 13:45 35.59972 139.79412 2532 ft 183 kts 71°
2026-02-17 13:45 35.60354 139.80892 3173 ft 183 kts 75°
2026-02-17 13:46 35.60749 139.82412 3570 ft 200 kts 74°
2026-02-17 13:46 35.61015 139.84168 3727 ft 220 kts 93°
2026-02-17 13:46 35.60971 139.86171 3964 ft 249 kts 92°
2026-02-17 13:47 35.60940 139.90646 5354 ft 271 kts 93°
2026-02-17 13:47 35.61085 139.92981 5993 ft 283 kts 75°
2026-02-17 13:47 35.62110 139.95077 6704 ft 293 kts 42°
2026-02-17 13:47 35.63883 139.96249 7504 ft 291 kts
2026-02-17 13:48 35.65882 139.96447 8242 ft 290 kts 357°
2026-02-17 13:48 35.67920 139.96530 9017 ft 295 kts 357°
2026-02-17 13:48 35.69955 139.96637 9895 ft 297 kts 357°
2026-02-17 13:48 35.72045 139.96758 10565 ft 307 kts 356°
2026-02-17 13:49 35.74265 139.96791 10800 ft 332 kts 353°
2026-02-17 13:49 35.76675 139.96683 11026 ft 358 kts 352°
2026-02-17 13:49 35.79232 139.96541 11507 ft 375 kts 352°
2026-02-17 13:49 35.81887 139.96404 12375 ft 383 kts 352°
2026-02-17 13:50 35.84563 139.96281 13454 ft 387 kts 351°
2026-02-17 13:50 35.87274 139.96166 14489 ft 391 kts 351°
2026-02-17 13:50 35.90003 139.96055 15426 ft 396 kts 351°
2026-02-17 13:51 35.95592 139.95835 17264 ft 406 kts 350°
2026-02-17 13:51 35.98437 139.95723 18187 ft 412 kts 349°
2026-02-17 13:51 36.01317 139.95610 19002 ft 417 kts 349°
2026-02-17 13:51 36.04232 139.95497 19831 ft 420 kts 349°
2026-02-17 13:52 36.07165 139.95385 20668 ft 423 kts 348°
2026-02-17 13:52 36.10111 139.95435 21453 ft 435 kts 354°
2026-02-17 13:52 36.13154 139.95922 22243 ft 445 kts 359°
2026-02-17 13:52 36.16228 139.96549 22971 ft 451 kts 359°
2026-02-17 13:53 36.19344 139.97201 23704 ft 456 kts 359°
2026-02-17 13:53 36.22490 139.97861 24298 ft 460 kts 359°
2026-02-17 13:53 36.24582 139.98297 24697 ft 462 kts 359°
2026-02-17 13:53 36.27771 139.98955 25291 ft 466 kts 358°
2026-02-17 13:54 36.30981 139.99611 25880 ft 469 kts 358°
2026-02-17 13:54 36.34223 140.00267 26432 ft 473 kts 358°
2026-02-17 13:54 36.37489 140.00925 26972 ft 477 kts 358°
2026-02-17 13:55 36.44097 140.02255 28042 ft 485 kts 358°
2026-02-17 13:55 36.47445 140.02929 28535 ft 489 kts 357°
2026-02-17 13:55 36.50818 140.03610 29001 ft 492 kts 357°
2026-02-17 13:55 36.54211 140.04296 29438 ft 496 kts 357°
2026-02-17 13:56 36.57630 140.04988 29835 ft 499 kts 357°
2026-02-17 13:56 36.61068 140.05688 30340 ft 499 kts 357°
2026-02-17 13:56 36.64503 140.06390 30808 ft 499 kts 357°
2026-02-17 13:56 36.67897 140.07084 31226 ft 500 kts 357°
2026-02-17 13:57 36.71339 140.07785 31651 ft 501 kts 357°
2026-02-17 13:57 36.74786 140.08487 32080 ft 501 kts 357°
2026-02-17 13:57 36.78237 140.09190 32484 ft 502 kts 357°
2026-02-17 13:57 36.81688 140.09892 32907 ft 502 kts 357°
2026-02-17 13:58 36.85141 140.10597 33343 ft 502 kts 357°
2026-02-17 13:58 36.88590 140.11301 33725 ft 503 kts 357°
2026-02-17 13:58 36.92044 140.12006 34103 ft 504 kts 357°
2026-02-17 13:59 36.98950 140.13420 34798 ft 503 kts 357°
2026-02-17 13:59 37.02413 140.14130 35131 ft 502 kts 356°
2026-02-17 13:59 37.05871 140.14840 35454 ft 502 kts 356°
2026-02-17 13:59 37.09321 140.15546 35766 ft 502 kts 356°
2026-02-17 14:00 37.12727 140.16244 36073 ft 502 kts 356°
2026-02-17 14:00 37.16176 140.16952 36362 ft 502 kts 356°
2026-02-17 14:00 37.19623 140.17661 36664 ft 502 kts 356°
2026-02-17 14:00 37.23077 140.18374 36970 ft 502 kts 356°
2026-02-17 14:01 37.26532 140.19084 37068 ft 506 kts 356°
2026-02-17 14:01 37.33495 140.20693 37109 ft 509 kts 359°
2026-02-17 14:02 37.40389 140.22486 37126 ft 503 kts 359°
2026-02-17 14:02 37.47238 140.24254 37145 ft 502 kts 359°
2026-02-17 14:03 37.57521 140.26844 37167 ft 502 kts 359°
2026-02-17 14:03 37.64376 140.28561 37168 ft 503 kts 359°
2026-02-17 14:04 37.71256 140.30296 37174 ft 504 kts 359°
2026-02-17 14:04 37.78098 140.32026 37175 ft 505 kts 359°
2026-02-17 14:05 37.84986 140.33770 37183 ft 505 kts 359°
2026-02-17 14:05 37.91890 140.35520 37173 ft 506 kts 359°
2026-02-17 14:06 37.98796 140.37276 37171 ft 506 kts 359°
2026-02-17 14:07 38.09152 140.39915 37163 ft 505 kts 359°
2026-02-17 14:07 38.16050 140.41675 37167 ft 505 kts 360°
2026-02-17 14:08 38.22948 140.43445 37173 ft 505 kts 360°
2026-02-17 14:08 38.29833 140.45208 37171 ft 505 kts 360°
2026-02-17 14:09 38.36686 140.46967 37165 ft 505 kts
2026-02-17 14:09 38.43589 140.48745 37173 ft 505 kts
2026-02-17 14:10 38.50481 140.50523 37173 ft 505 kts
2026-02-17 14:10 38.57366 140.52302 37172 ft 505 kts
2026-02-17 14:11 38.67662 140.54966 37158 ft 505 kts
2026-02-17 14:11 38.74542 140.56755 37171 ft 504 kts
2026-02-17 14:12 38.81414 140.58541 37181 ft 504 kts
2026-02-17 14:12 38.88290 140.60331 37166 ft 504 kts
2026-02-17 14:13 38.95172 140.62130 37164 ft 504 kts
2026-02-17 14:13 39.01999 140.63922 37169 ft 503 kts
2026-02-17 14:14 39.08852 140.65717 37169 ft 502 kts
2026-02-17 14:15 39.19131 140.68417 37167 ft 502 kts
2026-02-17 14:15 39.25989 140.70224 37179 ft 503 kts
2026-02-17 14:16 39.32851 140.72036 37167 ft 503 kts
2026-02-17 14:16 39.39707 140.73850 37174 ft 503 kts
2026-02-17 14:17 39.46531 140.75658 37164 ft 503 kts
2026-02-17 14:17 39.53397 140.77482 37165 ft 503 kts
2026-02-17 14:18 39.60256 140.79308 37163 ft 503 kts
2026-02-17 14:18 39.67131 140.81139 37177 ft 504 kts
2026-02-17 14:19 39.77438 140.83899 37170 ft 504 kts
2026-02-17 14:19 39.84299 140.85739 37167 ft 504 kts
2026-02-17 14:20 39.91131 140.87570 37162 ft 504 kts
2026-02-17 14:20 39.97994 140.89420 37157 ft 503 kts
2026-02-17 14:21 40.04849 140.91269 37154 ft 503 kts
2026-02-17 14:21 40.11714 140.93123 37156 ft 503 kts
2026-02-17 14:22 40.22001 140.95282 37158 ft 490 kts 353°
2026-02-17 14:23 40.32154 140.95533 37163 ft 488 kts 352°
2026-02-17 14:23 40.38963 140.95699 37162 ft 490 kts 352°
2026-02-17 14:24 40.45791 140.95914 37160 ft 491 kts 353°
2026-02-17 14:24 40.52633 140.96145 37145 ft 491 kts 353°
2026-02-17 14:25 40.59477 140.96377 37141 ft 492 kts 353°
2026-02-17 14:25 40.66265 140.96602 37122 ft 492 kts 353°
2026-02-17 14:26 40.73109 140.96828 37131 ft 492 kts 353°
2026-02-17 14:27 40.83398 140.97170 37128 ft 492 kts 353°
2026-02-17 14:27 40.90252 140.97399 37133 ft 492 kts 353°
2026-02-17 14:28 40.97057 140.97626 37137 ft 492 kts 353°
2026-02-17 14:28 41.03917 140.97857 37140 ft 492 kts 353°
2026-02-17 14:28 41.07336 140.97970 36819 ft 495 kts 353°
2026-02-17 14:29 41.10821 140.98081 36073 ft 500 kts 354°
2026-02-17 14:29 41.14295 140.98200 35319 ft 499 kts 354°
2026-02-17 14:29 41.17770 140.98320 34507 ft 500 kts 355°
2026-02-17 14:29 41.21205 140.98437 33568 ft 501 kts 355°
2026-02-17 14:30 41.24724 140.98558 32896 ft 495 kts 355°
2026-02-17 14:30 41.28147 140.98822 32298 ft 493 kts
2026-02-17 14:31 41.38052 141.02128 30698 ft 487 kts 17°
2026-02-17 14:31 41.41150 141.03734 30190 ft 482 kts 17°
2026-02-17 14:31 41.44273 141.05325 29598 ft 477 kts 17°
2026-02-17 14:31 41.47370 141.06864 29061 ft 471 kts 16°
2026-02-17 14:32 41.50425 141.08371 28556 ft 465 kts 16°
2026-02-17 14:32 41.53443 141.09857 28077 ft 459 kts 17°
2026-02-17 14:32 41.56424 141.11326 27602 ft 453 kts 17°
2026-02-17 14:32 41.59362 141.12779 27085 ft 449 kts 17°
2026-02-17 14:33 41.62286 141.14226 26534 ft 446 kts 17°
2026-02-17 14:33 41.68066 141.17093 25462 ft 440 kts 17°
2026-02-17 14:33 41.70931 141.18527 24969 ft 438 kts 17°
2026-02-17 14:34 41.73771 141.19963 24477 ft 435 kts 18°
2026-02-17 14:34 41.76554 141.21375 24018 ft 431 kts 18°
2026-02-17 14:34 41.79348 141.22794 23535 ft 428 kts 18°
2026-02-17 14:35 41.84877 141.25600 22502 ft 421 kts 18°
2026-02-17 14:35 41.87611 141.26988 22104 ft 415 kts 18°
2026-02-17 14:35 41.90277 141.28343 21892 ft 405 kts 18°
2026-02-17 14:35 41.92886 141.29670 21609 ft 397 kts 18°
2026-02-17 14:36 41.95360 141.31186 21156 ft 387 kts 27°
2026-02-17 14:36 41.97613 141.33111 20521 ft 382 kts 34°
2026-02-17 14:36 41.99665 141.35359 19823 ft 382 kts 42°
2026-02-17 14:36 42.01594 141.37834 19344 ft 382 kts 43°
2026-02-17 14:37 42.03464 141.40278 19053 ft 376 kts 44°
2026-02-17 14:37 42.05331 141.42714 18719 ft 372 kts 43°
2026-02-17 14:37 42.07194 141.45127 18323 ft 370 kts 43°
2026-02-17 14:37 42.09048 141.47517 17874 ft 368 kts 43°
2026-02-17 14:38 42.10893 141.49891 17458 ft 365 kts 43°
2026-02-17 14:38 42.12729 141.52229 17086 ft 359 kts 40°
2026-02-17 14:38 42.14755 141.54144 16629 ft 355 kts 28°
2026-02-17 14:39 42.19108 141.57267 15697 ft 353 kts 26°
2026-02-17 14:39 42.21274 141.58801 15333 ft 350 kts 26°
2026-02-17 14:39 42.22697 141.59823 15086 ft 349 kts 26°
2026-02-17 14:39 42.24824 141.61372 14700 ft 346 kts 27°
2026-02-17 14:40 42.27619 141.63434 14196 ft 344 kts 27°
2026-02-17 14:40 42.29033 141.64483 13941 ft 342 kts 27°
2026-02-17 14:40 42.33769 141.68017 13436 ft 324 kts 27°
2026-02-17 14:41 42.35065 141.68986 13327 ft 319 kts 27°
2026-02-17 14:41 42.36988 141.70425 13094 ft 312 kts 27°
2026-02-17 14:41 42.38863 141.71830 13026 ft 304 kts 27°
2026-02-17 14:41 42.40724 141.73222 13014 ft 308 kts 27°
2026-02-17 14:42 42.42626 141.74647 13016 ft 315 kts 27°
2026-02-17 14:42 42.44554 141.76094 13014 ft 317 kts 27°
2026-02-17 14:42 42.46483 141.77543 13005 ft 316 kts 27°
2026-02-17 14:43 42.50324 141.80431 12940 ft 313 kts 27°
2026-02-17 14:43 42.52200 141.81842 12663 ft 311 kts 27°
2026-02-17 14:43 42.54114 141.83278 12302 ft 308 kts 25°
2026-02-17 14:43 42.56095 141.84149 11781 ft 302 kts
2026-02-17 14:44 42.58177 141.84143 11376 ft 295 kts 352°
2026-02-17 14:44 42.60204 141.83924 10845 ft 291 kts 351°
2026-02-17 14:44 42.62224 141.83667 10271 ft 290 kts 351°
2026-02-17 14:44 42.64228 141.83404 9717 ft 288 kts 351°
2026-02-17 14:45 42.66209 141.83139 9181 ft 283 kts 350°
2026-02-17 14:45 42.68143 141.82880 8814 ft 273 kts 350°
2026-02-17 14:45 42.69998 141.82635 8430 ft 264 kts 350°
2026-02-17 14:45 42.71813 141.82397 7894 ft 261 kts 350°
2026-02-17 14:46 42.73602 141.82161 7453 ft 255 kts 350°
2026-02-17 14:46 42.75342 141.81933 7060 ft 248 kts 350°
2026-02-17 14:46 42.77038 141.81717 6655 ft 241 kts 350°